Location: Arnold
(38.6403°N, 100.0462°W)
Time: 09:32:17
(UTC-05:00)

Envisat - Visible Passes

Search period start: 18 August 2018 00:00
Search period end: 28 August 2018 00:00
Orbit: 764 x 766 km, 98.2° (Epoch: 18 August)

Date Brightness Start Highest point End Pass type
(mag) Time Alt. Az. Time Alt. Az. Time Alt. Az.
18 Aug 5.8 22:14:19 10° WSW 22:16:47 13° W 22:19:15 10° WNW visible
19 Aug 4.8 21:35:16 10° SSW 21:39:44 31° W 21:44:14 10° NW visible
20 Aug 3.3 20:57:50 10° S 21:02:53 72° WSW 21:07:58 10° NNW visible
21 Aug 5.6 22:02:10 10° SW 22:05:30 17° W 22:08:50 10° NW visible
22 Aug 4.4 21:23:47 10° SSW 21:28:30 40° W 21:33:16 10° NNW visible
23 Aug 3.0 20:46:38 10° SSE 20:51:43 89° ENE 20:56:49 10° NNW visible
24 Aug 5.3 21:50:19 10° SW 21:54:14 22° W 21:58:10 10° NW visible
25 Aug 3.9 21:12:23 10° S 21:17:18 51° W 21:22:14 10° NNW visible
26 Aug 5.9 22:18:06 10° WSW 22:20:03 12° W 22:22:00 10° WNW visible
27 Aug 5.0 21:38:39 10° SSW 21:42:59 28° W 21:47:20 10° NW visible
